#timestamp,LO_Frequency,Hit,StdDev 
1607726475.8,286047024.7,P
1607726495.6,286047024.4,P
1607726515.4,286047023.7,P
1607726535.3,286047024.3,Y
1607726555.1,286047001.0,P
1607726575.9,286046999.5,N
1607726595.7,286046996.1,N
1607726615.5,286046993.3,N
1607726635.4,286046992.6,N
1607726655.2,286046992.8,N
1607726675.0,286046988.9,N
1607726675.9,286046988.9,N
1607726695.8,286046989.0,N
1607726715.6,286046987.3,N
1607726735.5,286046991.6,N
1607726755.3,286046991.1,N
1607726775.1,286046988.7,N
1607726795.9,286046987.9,N
1607726815.7,286046987.3,N
1607726835.5,286046989.4,N
1607726855.4,286046991.9,N
1607726875.2,286046992.0,N
1607726895.0,286046992.4,N
1607726896.0,286046992.4,N
1607726915.8,286046991.9,N
1607726935.6,286046990.9,N
1607726955.5,286046991.0,N
1607726975.3,286046991.6,N
1607726995.1,286046991.1,N
1607727015.9,286046991.1,N
1607727035.7,286046990.3,N
1607727055.6,286046990.5,N
1607727075.4,286046995.0,N
1607727095.2,286046995.8,N
1607727115.1,286046996.2,N
1607727116.0,286046996.2,N
1607727135.8,286046994.6,N
1607727155.6,286046988.5,Y
1607727175.5,286046997.7,P
1607727195.3,286046994.9,N
1607727215.2,286046991.7,P
1607727235.9,286046991.8,Y
1607727255.7,286046999.2,P
1607727275.6,286046999.2,N
1607727295.4,286046997.9,N
1607727315.2,286046997.5,N
1607727335.1,286046999.1,N
1607727336.0,286046999.1,N
1607727355.8,286046999.5,N
1607727375.7,286046997.7,N
1607727395.5,286046996.2,N
1607727415.3,286046994.2,Y
1607727435.2,286046996.8,P
1607727455.0,286046997.6,P
1607727455.9,286046997.6,P
1607727475.7,286046998.8,N
1607727495.6,286046997.4,Y
1607727515.4,286046998.6,P
1607727535.3,286046998.3,P
1607727555.1,286047000.9,N
1607727575.8,286046999.7,N
1607727595.7,286047000.3,N
